Location: Asheville, NC
(35.6000°N, 82.5500°W)
Time: 18:43:35
(UTC-04:00)

STRAND 1 - Pass Details

Date: 15 March 2018
Orbit: 769 x 781 km, 98.5° (Epoch: 20 June)

Event Time Altitude Azimuth Distance (km) Brightness Sun altitude
Rises 21:10:59 0° 10° (N) 3,259 ? -19.6°
Reaches altitude 10° 21:13:18 10° 9° (N) 2,326 ? -20.1°
Maximum altitude 21:18:25 77° 285° (WNW) 796 ? -21.1°
Drops below altitude 10° 21:23:30 10° 200° (SSW) 2,304 ? -22.1°
Sets 21:25:47 0° 199° (SSW) 3,225 ? -22.6°
